Appleton, WI

7:30 PM CST on December 06, 2019 (GMT -0600)
Outagamie County Regional

Weather History for KATW - October, 2019

Change the Weather History Date:

Monday, October 7, 2019

  Actual Average Record
Temperature  
Mean Temperature 54 °F -  
Max Temperature 64 °F 60 °F 113 °F (1996)
Min Temperature 44 °F 41 °F 28 °F (2000)
Degree Days  
Heating Degree Days 11    
Growing Degree Days 4 (Base 50)    
Moisture  
Dew Point 35 °F    
Average Humidity 56    
Maximum Humidity 76    
Minimum Humidity 26    
Precipitation  
Precipitation 0.00 in - - ()
Sea Level Pressure  
Sea Level Pressure 30.08 in    
Wind  
Wind Speed 7 mph ()    
Max Wind Speed 16 mph    
Max Gust Speed 25 mph    
Visibility 10.0 miles    
Events      
Averages and records for this station are not official NWS values.
T = Trace of Precipitation, MM = Missing Value Source: Averaged Metar Reports

Daily Weather History Graph

Daily Weather History Graph

Search for Another Location

Airport or City:

Astronomy

Oct. 07, 2019 Rise Set
Actual Time 6:58 AM CDT 6:24 PM CDT
Civil Twilight 6:29 AM CDT 6:53 PM CDT
Nautical Twilight 5:56 AM CDT 7:26 PM CDT
Astronomical Twilight 5:22 AM CDT 8:00 PM CDT
Moon 4:01 PM CDT 12:35 AM CDT
Length of Visible Light 12h 23m
Length of Day
11h 25m
Waxing Gibbous, 69% of the Moon is Illuminated
Oct 7
Waxing Gibbous
Oct 13
Full
Oct 21
Last Quarter
Oct 27
New
Nov 4
First Quarter

Hourly Weather History & Observations

Time (CDT) Temp. Windchill Dew Point Humidity Pressure Visibility Wind Dir Wind Speed Gust Speed Precip Events Conditions
12:15 AM 50.0 °F - 37.4 °F 62% 30.01 in 10.0 mi WSW 9.2 mph - N/A   Clear
12:35 AM 50.0 °F - 37.4 °F 62% 30.01 in 10.0 mi WSW 8.1 mph - N/A   Clear
12:55 AM 50.0 °F - 37.4 °F 62% 30.02 in 10.0 mi WSW 8.1 mph - N/A   Clear
1:15 AM 50.0 °F - 35.6 °F 58% 30.03 in 10.0 mi WSW 9.2 mph - N/A   Clear
1:35 AM 48.2 °F - 35.6 °F 62% 30.03 in 10.0 mi West 9.2 mph - N/A   Clear
1:55 AM 48.2 °F - 35.6 °F 62% 30.03 in 10.0 mi WSW 5.8 mph - N/A   Clear
2:15 AM 46.4 °F 42.9 °F 35.6 °F 66% 30.03 in 10.0 mi WSW 6.9 mph - N/A   Clear
2:35 AM 46.4 °F 43.5 °F 35.6 °F 66% 30.02 in 10.0 mi WSW 5.8 mph - N/A   Clear
2:55 AM 46.4 °F 42.9 °F 35.6 °F 66% 30.02 in 10.0 mi WSW 6.9 mph - N/A   Clear
3:15 AM 46.4 °F 43.5 °F 35.6 °F 66% 30.03 in 10.0 mi WSW 5.8 mph - N/A   Scattered Clouds
3:35 AM 46.4 °F 42.9 °F 35.6 °F 66% 30.04 in 10.0 mi WSW 6.9 mph - N/A   Mostly Cloudy
3:55 AM 46.4 °F 42.9 °F 35.6 °F 66% 30.04 in 10.0 mi WSW 6.9 mph - N/A   Scattered Clouds
4:15 AM 48.2 °F - 35.6 °F 62% 30.04 in 10.0 mi WSW 5.8 mph - N/A   Mostly Cloudy
4:35 AM 46.4 °F 43.5 °F 35.6 °F 66% 30.05 in 10.0 mi SW 5.8 mph - N/A   Scattered Clouds
4:55 AM 44.6 °F 40.7 °F 37.4 °F 76% 30.05 in 10.0 mi SW 6.9 mph - N/A   Mostly Cloudy
5:15 AM 46.4 °F 41.9 °F 35.6 °F 66% 30.05 in 10.0 mi SW 9.2 mph - N/A   Scattered Clouds
5:20 AM 46.4 °F 41.9 °F 37.4 °F 71% 30.05 in 10.0 mi SW 9.2 mph - N/A   Scattered Clouds
5:45 AM 46.4 °F 41.9 °F 37.4 °F 71% 30.05 in 10.0 mi SW 9.2 mph - N/A   Scattered Clouds
6:45 AM 46.4 °F 42.9 °F 37.4 °F 71% 30.06 in 10.0 mi WSW 6.9 mph - N/A   Scattered Clouds
7:45 AM 48.2 °F - 37.4 °F 66% 30.07 in 10.0 mi WSW 9.2 mph - N/A   Partly Cloudy
8:45 AM 50.0 °F - 39.2 °F 66% 30.09 in 10.0 mi West 9.2 mph - N/A   Partly Cloudy
9:45 AM 55.4 °F - 39.2 °F 54% 30.11 in 10.0 mi West 8.1 mph - N/A   Scattered Clouds
10:45 AM 57.2 °F - 37.4 °F 48% 30.12 in 10.0 mi WNW 9.2 mph - N/A   Clear
11:45 AM 60.8 °F - 33.8 °F 36% 30.12 in 10.0 mi WNW 12.7 mph - N/A   Clear
12:45 PM 62.6 °F - 30.2 °F 30% 30.12 in 10.0 mi West 16.1 mph 25.3 mph N/A   Scattered Clouds
1:45 PM 62.6 °F - 30.2 °F 30% 30.11 in 10.0 mi WNW 12.7 mph 20.7 mph N/A   Partly Cloudy
2:45 PM 64.4 °F - 30.2 °F 28% 30.11 in 10.0 mi West 12.7 mph 20.7 mph N/A   Partly Cloudy
3:45 PM 64.4 °F - 28.4 °F 26% 30.11 in 10.0 mi West 15.0 mph 20.7 mph N/A   Clear
4:45 PM 62.6 °F - 28.4 °F 27% 30.12 in 10.0 mi WNW 9.2 mph - N/A   Clear
5:45 PM 59.0 °F - 32.0 °F 36% 30.12 in 10.0 mi West 6.9 mph - N/A   Scattered Clouds
6:45 PM 57.2 °F - 33.8 °F 41% 30.13 in 10.0 mi SW 5.8 mph - N/A   Scattered Clouds
7:45 PM 53.6 °F - 33.8 °F 47% 30.13 in 10.0 mi SW 5.8 mph - N/A   Scattered Clouds
8:45 PM 53.6 °F - 35.6 °F 51% 30.14 in 10.0 mi SW 5.8 mph - N/A   Scattered Clouds
9:45 PM 53.6 °F - 33.8 °F 47% 30.16 in 10.0 mi SW 6.9 mph - N/A   Scattered Clouds
10:45 PM 50.0 °F - 35.6 °F 58% 30.17 in 10.0 mi SW 5.8 mph - N/A   Clear
10:55 PM 50.0 °F - 35.6 °F 58% 30.17 in 10.0 mi SW 5.8 mph - N/A   Clear
11:15 PM 46.4 °F 44.3 °F 33.8 °F 62% 30.17 in 10.0 mi SW 4.6 mph - N/A   Clear
11:35 PM 46.4 °F 44.3 °F 33.8 °F 62% 30.16 in 10.0 mi SW 4.6 mph - N/A   Clear
11:55 PM 46.4 °F 44.3 °F 33.8 °F 62% 30.16 in 10.0 mi WSW 4.6 mph - N/A   Clear